Location: Albert Place
(40.7505°N, 111.9230°W)
Time: 14:11:46
(UTC+00:00)

Helios 1A Rocket - Pass Details

Date: 13 December 2025
Orbit: 433 x 442 km, 98.3° (Epoch: 17 January)

Event Time Altitude Azimuth Distance (km) Brightness Sun altitude
Rises 12:42:06 0° 152° (SSE) 2,402 6.7 -22.2°
Reaches altitude 10° 12:44:08 10° 145° (SE) 1,542 5.7 -21.8°
Maximum altitude 12:47:17 42° 73° (ENE) 635 3.5 -21.2°
Enters shadow 12:48:58 23° 14° (NNE) 993 4.1 -20.9°
